Location: Stuart
(27.1975°N, 80.2528°W)
Time: 05:11:59
(UTC-04:00)

ISS - Visible Passes

Search period start: 15 May 2021 00:00
Search period end: 25 May 2021 00:00
Orbit: 417 x 422 km, 51.6° (Epoch: 15 May)

Date Brightness Start Highest point End Pass type
(mag) Time Alt. Az. Time Alt. Az. Time Alt. Az.
15 May -3.1 05:34:05 10° NNW 05:37:25 57° NE 05:40:43 10° SE visible
15 May -3.8 20:35:13 10° SSW 20:38:32 67° SE 20:41:51 10° NE visible
16 May -1.6 04:46:56 10° NNW 04:49:56 29° NE 04:52:54 10° ESE visible
16 May -0.5 21:25:49 10° W 21:27:59 16° NW 21:30:09 10° N visible
17 May -0.7 04:00:12 10° N 04:02:22 17° NE 04:04:36 10° E visible
17 May -3.0 05:36:11 10° WNW 05:39:11 30° SW 05:42:10 10° S visible
17 May -1.4 20:37:29 10° WSW 20:40:25 28° NW 20:43:21 10° NNE visible
18 May -1.4 04:54:32 14° SSE 04:54:32 14° SSE 04:55:08 10° SSE visible
